Location: Aciu?a
(46.2833°N, 22.4500°E)
Time: 13:01:18
(UTC+00:00)

Cosmos 1455 - Pass Details

Date: 31 May 2022
Orbit: 492 x 514 km, 82.5° (Epoch: 03 July)

Event Time Altitude Azimuth Distance (km) Brightness Sun altitude
Rises 00:49:19 0° 335° (NNW) 2,584 6.2 -14.7°
Reaches altitude 10° 00:51:55 10° 317° (NW) 1,696 5.0 -14.4°
Maximum altitude 00:54:29 18° 272° (W) 1,264 3.9 -14.2°
Enters shadow 00:55:11 17° 258° (WSW) 1,300 3.8 -14.1°
